Location: Graswijk
(52.9667°N, 6.5500°E)
Time: 08:15:25
(UTC+00:00)

CZ-2C R/B - Pass Details

Date: 15 May 2026
Orbit: 781 x 867 km, 98.4° (Epoch: 6 June)

Event Time Altitude Azimuth Distance (km) Brightness Sun altitude
Exits shadow 22:39:09 17° 121° (ESE) 1,939 4.2 -17.1°
Maximum altitude 22:42:39 37° 63° (ENE) 1,222 3.7 -17.3°
Drops below altitude 10° 22:47:23 10° 357° (N) 2,360 6.3 -17.4°
Sets 22:49:50 0° 350° (N) 3,287 7.6 -17.5°
